Hourly Data Report for October 04, 2014

All times are specified in Local Standard Time (LST). Add 1 hour to adjust for Daylight Saving Time where and when it is observed.

CAPE DORSET A
NUNAVUT

64°13'49.000" N
76°31'30.000" W
48.20 m
2400637
71366
YTE

Download Data

Hourly Data (October 2014)
Hourly Data Report for October 4, 2014
Temp Definition
°C
Dew Point Temp Definition
°C
Rel Hum Definition
%
Wind Dir Definition
10's deg

Wind Spd Definition
km/h
Visibility Definition
km
Stn Press Definition
kPa
Hmdx Definition


Wind Chill Definition


Weather Definition


TIME
00:00 Legend Double Dagger -5.2 -7.8 82 4 21 16.1 100.42   -12 LegendNANA
01:00 Legend Double Dagger -5.5 -7.6 85 4 17 16.1 100.46   -12 LegendNANA
02:00 Legend Double Dagger -5.5 -7.2 88 5 32 16.1 100.45   -14 LegendNANA
03:00 Legend Double Dagger -6.0 LegendMM LegendMM 5 32 2.4 100.44   -15 LegendNANA
04:00 Legend Double Dagger -5.8 -5.8 100 6 22 6.4 100.48   -13 Fog
05:00 Legend Double Dagger -5.1 LegendMM LegendMM 5 18 0.8 100.50   -11 Freezing Rain,Moderate Snow
06:00 Legend Double Dagger -4.9 LegendMM LegendMM 5 18 0.4 100.53   -11 Heavy Snow
07:00 Legend Double Dagger -4.2 LegendMM LegendMM 5 17 0.4 100.53   -10 Freezing Rain,Heavy Snow
08:00 Legend Double Dagger -3.2 LegendMM LegendMM 6 11 2.0 100.58   -7 Snow
09:00 Legend Double Dagger -2.2 LegendMM LegendMM 6 22 4.0 100.55   -8 LegendNANA
10:00 Legend Double Dagger -2.1 LegendMM LegendMM 7 24 0.4 100.52   -8 Freezing Rain
11:00 Legend Double Dagger -1.0 LegendMM LegendMM 7 26 0.2 100.50   -7 Freezing Rain
12:00 Legend Double Dagger -0.1 LegendMM LegendMM 9 37 1.2 100.50   -7 LegendNANA
13:00 Legend Double Dagger 0.1 LegendMM LegendMM 9 39 11.3 100.50     LegendNANA
14:00 Legend Double Dagger 0.3 LegendMM LegendMM 9 39 3.2 100.48     LegendNANA
15:00 Legend Double Dagger 0.4 LegendMM LegendMM 10 43 16.1 100.44     LegendNANA
16:00 Legend Double Dagger 0.6 -0.4 93 10 43 16.1 100.48     LegendNANA
17:00 Legend Double Dagger 0.7 -0.6 91 9 46 16.1 100.50     LegendNANA
18:00 Legend Double Dagger 0.8 -1.1 87 10 52 16.1 100.49     LegendNANA
19:00 Legend Double Dagger 0.9 -1.1 87 10 45 16.1 100.53     LegendNANA
20:00 Legend Double Dagger 0.9 -1.0 87 9 48 16.1 100.47     LegendNANA
21:00 Legend Double Dagger 0.9 -1.2 86 9 48 16.1 100.48     LegendNANA
22:00 Legend Double Dagger 0.8 -1.1 87 9 52 16.1 100.46     LegendNANA
23:00 Legend Double Dagger 0.8 -1.4 85 9 43 16.1 100.47     LegendNANA

Notes on Data Quality.

Legend

  • E = Estimated
  • M = Missing
  • NA = Not Available
  • ‡ = Partner data that is not subject to review by the National Climate Archives
Date modified: